Wind_Speed
86 86 87 87 86 86 85 85 84 83 81 79 76 73 68 63 64 65 63 61 60 59 62 64 63 66 69 73 77 80 81 78 74 71 65 61 59 57 58 60 63 64
87 87 87 87 86 86 85 84 83 82 80 77 74 70 65 62 63 64 62 60 58 58 62 63 64 67 70 73 76 78 76 71 65 61 57 54 52 51 53 56 59 62
88 88 87 87 86 86 85 84 82 80 78 75 71 67 62 60 62 63 61 58 56 57 61 62 64 67 70 73 75 74 70 64 56 50 48 46 44 44 46 50 53 59
89 88 88 87 86 86 84 82 81 79 76 73 69 64 60 59 61 61 59 56 54 56 59 61 64 67 70 72 72 68 63 56 47 40 38 37 36 37 40 44 50 57
89 88 88 87 86 85 83 81 79 77 74 71 67 62 58 57 59 59 57 54 53 54 57 59 63 66 67 67 67 63 58 51 41 32 28 27 29 31 35 42 50 57
90 89 88 87 86 84 82 79 77 75 72 69 65 61 56 55 57 57 55 53 51 52 54 57 61 63 62 62 59 55 52 45 34 24 19 20 24 28 36 44 52 59
90 89 88 87 85 83 80 78 75 73 70 67 64 59 54 53 55 55 53 52 50 50 51 55 58 58 57 56 51 47 44 37 27 18 12 15 21 30 39 48 54 60
91 90 88 86 84 81 78 76 73 71 68 65 63 58 53 52 53 53 52 50 48 48 48 52 54 52 50 49 45 41 37 30 23 15 6 9 18 30 40 47 54 58
91 90 87 85 82 79 77 74 71 69 66 64 62 58 52 51 52 51 50 48 46 46 46 48 50 48 43 41 39 36 31 23 17 10 6 14 20 29 37 44 51 55
91 89 86 84 81 78 75 73 70 68 66 64 62 58 53 50 50 50 48 46 44 44 45 45 46 43 37 34 32 32 29 20 13 7 6 16 23 28 34 40 47 52
91 89 86 83 80 77 74 72 70 68 66 64 63 60 54 50 49 48 46 45 43 42 43 43 42 39 33 28 26 26 25 19 11 7 3 8 18 26 33 38 43 47
91 89 86 82 79 76 74 72 70 68 66 65 64 62 55 49 49 48 45 43 42 40 41 40 38 36 30 24 21 22 22 18 11 4 3 6 12 18 25 30 34 35
91 88 84 81 78 75 74 72 70 69 67 66 65 63 56 50 48 47 44 41 40 39 39 38 35 33 30 23 18 18 19 18 14 10 11 13 15 18 21 23 25 26
90 86 83 80 77 75 74 73 71 70 68 67 65 64 58 50 47 47 44 40 39 38 37 36 34 31 29 25 19 15 16 17 16 15 16 18 19 21 22 22 23 23
88 84 81 79 77 76 75 74 72 71 69 67 65 64 59 52 48 47 44 41 39 38 36 35 34 32 29 26 24 19 16 16 18 18 19 19 19 20 21 22 23 23
85 83 80 79 78 77 76 74 73 71 69 67 65 64 60 53 48 47 45 42 39 38 36 35 34 33 31 28 27 25 20 18 19 20 21 21 21 21 21 23 25 27
83 81 80 79 78 77 76 75 73 72 70 68 66 63 61 55 49 47 46 43 41 39 37 35 34 34 34 32 30 30 27 23 22 23 23 24 25 26 25 25 27 29
81 80 79 78 78 77 76 75 73 72 70 68 66 64 62 57 50 47 47 45 43 41 38 37 35 34 36 37 35 33 32 30 28 27 27 27 28 30 30 30 30 32
79 78 77 77 76 76 75 74 73 72 70 68 66 64 62 58 51 47 47 47 45 43 40 39 37 35 35 39 40 37 36 35 33 32 32 31 32 33 33 33 33 34
76 76 75 75 75 75 75 74 73 72 70 68 66 64 63 60 53 48 48 48 46 45 43 41 40 38 36 38 42 43 40 38 38 37 36 36 37 38 38 38 38 38
74 74 74 75 75 74 74 74 72 71 69 68 66 64 62 60 56 50 49 50 48 47 45 44 43 41 38 37 40 45 46 44 42 41 41 40 40 41 43 43 43 43
74 74 75 75 75 75 74 73 71 69 68 66 65 63 62 61 58 53 51 51 51 49 47 46 45 43 42 39 39 42 47 49 47 45 44 44 44 44 45 47 47 48
75 75 76 76 76 74 73 71 70 68 67 65 64 63 61 60 59 55 53 53 53 52 50 48 47 46 45 43 41 41 44 48 51 51 49 47 47 47 47 48 49 51
78 78 78 77 76 74 72 70 69 68 66 65 63 62 62 61 60 58 55 54 55 54 52 50 49 48 47 46 44 42 42 45 49 53 54 52 51 50 50 49 50 50
81 80 80 78 76 74 72 70 69 69 67 65 63 63 63 62 61 59 58 56 56 56 55 53 52 51 50 49 47 46 44 44 46 50 54 55 55 54 53 53 52 52
83 82 82 81 79 76 73 71 70 69 69 66 64 63 63 63 62 61 60 59 58 57 57 56 54 54 53 52 50 49 47 46 45 46 50 53 56 58 58 58 58 57
Wind_Direction
278 280 282 283 285 286 288 289 290 291 292 293 293 292 291 289 288 288 290 291 292 293 293 295 297 298 298 299 301 301 301 298 294 290 284 275 266 257 250 244 238 231
278 280 282 283 285 286 287 289 290 290 291 291 291 290 289 288 287 288 290 291 292 293 294 296 298 299 301 303 304 305 304 301 297 290 280 270 260 251 245 239 233 225
278 280 281 282 284 285 286 288 288 289 289 290 289 288 287 287 288 288 290 291 292 294 295 297 299 301 304 306 307 308 307 304 299 288 273 263 255 247 240 234 227 218
278 279 280 281 283 284 285 286 287 287 288 288 287 286 285 286 287 288 289 290 292 294 295 298 301 303 306 308 310 311 310 308 303 288 269 258 250 243 235 225 216 208
278 279 280 281 282 283 284 285 285 286 286 286 285 284 284 286 287 287 288 289 292 294 296 299 302 304 307 310 313 314 313 313 308 292 273 257 245 235 224 211 202 196
277 278 279 280 281 282 283 283 283 284 284 283 283 282 283 284 285 286 287 288 291 293 296 300 303 305 308 312 315 316 316 316 312 301 282 254 233 217 204 195 190 189
276 277 279 279 280 281 281 281 281 281 281 281 281 281 282 283 284 285 285 287 290 292 296 300 302 304 309 313 317 319 320 320 319 314 289 246 219 200 191 185 183 186
276 277 277 278 279 280 280 279 279 279 279 279 279 279 280 282 283 283 284 286 289 292 296 300 301 303 309 315 319 322 325 329 331 323 284 216 198 190 186 182 182 186
275 276 277 277 278 278 278 277 276 276 276 277 277 277 278 280 281 282 282 284 287 290 295 299 299 302 309 317 321 324 327 337 340 317 218 176 176 181 182 182 184 189
274 275 276 276 276 276 276 274 274 274 274 275 275 275 276 278 279 279 280 281 284 288 293 296 297 299 307 317 322 323 325 333 346 332 208 174 170 176 182 186 190 194
273 274 275 275 274 274 273 272 272 272 272 273 274 274 275 276 277 276 277 278 281 285 291 294 293 294 301 313 320 319 318 321 333 348 314 193 182 184 189 194 199 202
272 273 273 272 272 271 270 269 269 270 271 272 273 274 274 274 274 274 273 275 277 281 287 290 288 288 293 302 313 312 308 306 299 281 257 233 214 207 206 206 208 210
271 271 270 270 269 267 267 267 268 268 269 270 272 273 273 272 272 271 269 270 273 276 283 286 281 279 284 288 296 302 297 292 279 246 217 214 217 218 217 218 216 212
269 269 268 267 266 265 265 265 266 267 268 269 271 272 272 271 271 269 266 266 268 271 278 282 274 268 273 277 276 281 283 278 269 250 230 219 215 216 216 216 216 213
267 266 266 265 264 263 264 264 265 265 266 267 269 270 271 270 270 268 265 263 264 267 272 277 271 260 260 266 266 262 263 263 259 251 242 230 219 213 211 210 209 209
265 264 263 263 263 263 263 263 263 264 265 265 267 268 269 269 268 267 264 261 261 262 266 271 269 258 250 253 258 256 250 248 250 248 245 237 223 212 209 209 208 210
263 262 262 262 262 262 262 262 262 262 263 264 265 266 267 267 266 265 262 260 259 259 262 266 266 258 248 243 247 251 248 242 242 243 243 238 224 214 211 213 213 215
262 262 262 262 262 261 261 260 260 260 261 262 263 264 265 265 263 262 260 258 257 257 258 261 263 258 249 241 240 245 247 243 239 238 241 239 227 216 213 215 218 220
261 261 261 261 260 260 259 259 258 258 259 260 260 261 263 263 261 259 257 255 254 255 255 258 260 257 250 242 238 239 242 243 241 237 237 238 233 226 221 220 222 224
260 260 260 259 258 258 257 257 257 257 257 258 258 259 260 261 259 256 254 252 251 252 253 255 258 257 252 244 239 237 238 240 241 239 236 235 234 233 231 230 230 231
258 258 258 257 257 256 256 256 256 256 256 257 257 257 258 259 258 254 252 249 248 248 250 252 255 257 255 248 241 238 237 237 239 240 239 236 234 233 233 233 233 234
256 256 256 256 255 255 255 256 256 256 256 256 256 256 256 257 256 253 249 247 246 246 247 249 252 254 255 252 246 240 238 238 238 239 239 239 237 235 234 234 234 235
255 255 255 255 255 255 256 256 257 257 257 256 256 256 255 255 254 252 248 245 244 244 244 246 248 251 253 253 250 244 240 238 238 239 239 240 239 238 237 238 238 238
254 254 255 255 256 256 257 257 258 258 257 257 256 255 255 253 253 251 248 244 243 243 243 244 245 248 251 252 252 249 244 241 239 239 240 241 240 239 239 240 241 242
254 254 255 256 256 257 257 258 258 258 258 257 257 256 255 253 252 250 247 244 242 241 242 242 243 245 248 250 251 251 248 245 242 240 240 241 241 241 240 240 241 243
253 254 255 255 255 256 257 258 258 259 259 258 256 255 255 254 252 250 248 245 242 241 241 241 242 243 245 247 250 250 250 248 246 243 241 240 241 242 243 243 244 244
Height
10653 10653 10653 10652 10650 10649 10649 10648 10647 10646 10645 10643 10642 10640 10639 10637 10633 10630 10628 10626 10624 10620 10615 10611 10608 10603 10598 10592 10584 10575 10565 10554 10544 10537 10533 10529 10527 10527 10528 10531 10535 10543
10645 10645 10644 10644 10642 10642 10641 10640 10640 10639 10637 10637 10635 10634 10633 10631 10626 10624 10623 10621 10618 10614 10609 10605 10600 10595 10589 10582 10575 10564 10552 10541 10532 10524 10519 10516 10514 10515 10517 10520 10526 10535
10637 10637 10637 10636 10635 10634 10634 10633 10632 10631 10631 10630 10629 10629 10628 10625 10621 10618 10617 10615 10612 10608 10603 10599 10593 10587 10581 10574 10565 10554 10542 10531 10522 10514 10509 10506 10505 10507 10510 10514 10520 10528
10630 10630 10629 10628 10627 10627 10626 10626 10625 10624 10623 10623 10623 10623 10622 10619 10615 10612 10611 10610 10607 10603 10598 10594 10587 10581 10574 10566 10557 10545 10533 10523 10514 10507 10502 10499 10499 10502 10505 10510 10516 10525
10622 10622 10621 10620 10620 10619 10619 10618 10618 10617 10616 10616 10617 10617 10617 10614 10610 10608 10606 10604 10602 10599 10594 10590 10583 10576 10570 10562 10551 10539 10527 10518 10510 10503 10498 10496 10496 10499 10504 10509 10515 10524
10613 10613 10613 10613 10612 10612 10611 10611 10610 10610 10610 10610 10610 10611 10611 10609 10606 10603 10601 10600 10598 10595 10590 10586 10580 10574 10567 10559 10549 10538 10526 10516 10509 10501 10497 10496 10497 10499 10504 10510 10518 10527
10604 10604 10605 10605 10605 10604 10604 10604 10603 10603 10603 10603 10604 10605 10606 10604 10601 10599 10597 10595 10594 10591 10588 10583 10578 10572 10566 10558 10549 10539 10528 10518 10510 10504 10500 10500 10501 10504 10508 10514 10523 10533
10595 10596 10597 10597 10597 10597 10596 10596 10596 10596 10596 10596 10597 10599 10600 10599 10596 10594 10592 10591 10590 10588 10585 10581 10576 10571 10566 10558 10550 10542 10532 10523 10515 10510 10508 10508 10510 10513 10517 10522 10530 10539
10586 10587 10589 10589 10589 10589 10589 10589 10589 10589 10589 10589 10590 10592 10594 10594 10592 10590 10588 10587 10586 10584 10582 10579 10574 10570 10566 10559 10552 10545 10538 10531 10525 10521 10519 10518 10520 10524 10528 10533 10539 10545
10577 10579 10580 10580 10581 10581 10581 10581 10581 10582 10582 10582 10583 10585 10588 10589 10587 10586 10584 10583 10583 10581 10579 10577 10573 10569 10566 10561 10555 10549 10544 10539 10535 10532 10530 10529 10531 10534 10538 10542 10547 10551
10569 10571 10572 10572 10573 10573 10573 10573 10573 10574 10575 10576 10576 10578 10581 10583 10582 10582 10581 10579 10579 10578 10576 10574 10571 10568 10565 10562 10558 10554 10550 10546 10542 10541 10540 10540 10541 10543 10546 10550 10553 10557
10561 10562 10563 10564 10565 10565 10564 10565 10566 10567 10568 10569 10569 10570 10574 10576 10577 10577 10577 10576 10575 10574 10574 10572 10569 10566 10564 10562 10560 10557 10555 10552 10549 10548 10548 10549 10551 10552 10555 10557 10561 10565
10551 10553 10555 10556 10556 10556 10556 10557 10559 10560 10561 10561 10562 10563 10566 10569 10571 10572 10572 10572 10571 10570 10570 10569 10567 10564 10562 10561 10560 10559 10557 10556 10554 10553 10553 10554 10556 10559 10561 10564 10567 10571
10541 10543 10545 10547 10547 10547 10548 10550 10551 10553 10554 10554 10555 10557 10559 10562 10564 10565 10567 10567 10567 10567 10567 10566 10565 10563 10561 10559 10559 10558 10558 10557 10557 10556 10555 10556 10558 10560 10563 10566 10569 10572
10531 10534 10535 10536 10537 10538 10539 10541 10543 10545 10547 10548 10549 10550 10552 10555 10557 10559 10560 10562 10562 10562 10563 10562 10561 10560 10559 10557 10556 10556 10557 10557 10557 10557 10557 10557 10558 10560 10563 10565 10568 10570
10521 10523 10525 10526 10527 10529 10531 10533 10535 10537 10539 10540 10542 10544 10546 10548 10551 10552 10554 10556 10557 10557 10558 10558 10558 10557 10557 10556 10554 10554 10554 10554 10555 10556 10557 10557 10558 10559 10561 10562 10565 10567
10511 10512 10515 10517 10518 10520 10522 10524 10527 10529 10531 10533 10535 10537 10539 10542 10544 10546 10547 10549 10551 10552 10553 10553 10553 10553 10553 10553 10552 10551 10551 10551 10552 10553 10555 10556 10557 10557 10558 10560 10562 10564
10500 10503 10505 10507 10509 10511 10512 10514 10517 10519 10522 10525 10528 10530 10532 10534 10538 10540 10541 10542 10544 10545 10547 10548 10548 10548 10548 10549 10549 10549 10548 10548 10549 10550 10551 10553 10554 10555 10555 10557 10559 10561
10491 10493 10495 10497 10499 10500 10502 10504 10506 10509 10513 10517 10520 10523 10525 10527 10531 10533 10534 10536 10537 10539 10540 10541 10542 10543 10543 10544 10545 10545 10545 10545 10546 10546 10547 10549 10550 10552 10553 10554 10555 10557
10481 10483 10485 10486 10488 10489 10491 10494 10496 10500 10504 10508 10512 10515 10517 10520 10524 10526 10528 10529 10531 10532 10533 10534 10536 10537 10538 10539 10539 10540 10541 10542 10542 10543 10544 10544 10546 10547 10549 10550 10551 10553
10471 10472 10473 10475 10476 10478 10481 10484 10487 10492 10495 10499 10504 10507 10510 10513 10516 10519 10521 10523 10524 10526 10527 10528 10530 10531 10532 10533 10534 10535 10536 10537 10538 10538 10539 10540 10541 10542 10544 10545 10546 10548
10460 10462 10462 10463 10465 10468 10471 10475 10479 10484 10487 10491 10495 10499 10502 10505 10508 10511 10514 10515 10517 10519 10520 10522 10524 10524 10526 10527 10528 10529 10530 10531 10533 10534 10535 10536 10537 10538 10539 10540 10541 10543
10449 10451 10451 10452 10455 10459 10463 10467 10472 10476 10479 10483 10487 10490 10494 10497 10500 10503 10506 10508 10510 10511 10513 10516 10517 10518 10520 10521 10521 10523 10524 10525 10527 10528 10529 10531 10532 10533 10534 10535 10536 10537
10438 10440 10441 10443 10448 10452 10456 10460 10464 10467 10471 10475 10479 10482 10485 10488 10491 10494 10497 10500 10502 10504 10506 10509 10510 10512 10513 10514 10515 10516 10517 10519 10520 10522 10523 10525 10526 10528 10529 10530 10531 10532
10428 10430 10432 10435 10440 10444 10448 10453 10456 10459 10462 10467 10471 10473 10475 10478 10482 10485 10488 10491 10494 10496 10499 10501 10503 10505 10507 10508 10509 10510 10511 10512 10514 10515 10517 10518 10520 10522 10523 10524 10525 10526
10419 10421 10422 10426 10431 10435 10440 10445 10448 10450 10453 10458 10463 10466 10467 10469 10473 10476 10479 10482 10485 10488 10491 10493 10496 10498 10500 10501 10503 10504 10505 10506 10507 10509 10510 10512 10514 10515 10517 10518 10519 10520